Terug naar catalogus

SL-8 DEB

ActiefLEO
NORAD 13261·DEBRIS·🇷🇺 Russia

Gelanceerd Jun 6, 1982 vanaf Plesetsk Cosmodrome

Loading…

Volgende Passages (komende 24 uur)

TLE

VersSource: Space-Track

Epoch: Sep 14, 2026, 05:08 UTC

1 13261U 82055C   26257.21409737 -.00000028  00000-0  56770-4 0  9998
2 13261  65.8375 341.6438 0020397 290.7554  88.6022 13.72898959218346

Volg SL-8 DEB in realtime met AllMySat

Download on the App Store